#timestamp,LO_Frequency,Hit,StdDev 
1512867615.2,286046998.2,N
1512867635.1,286046998.4,N
1512867636.0,286046998.4,N
1512867655.8,286046998.9,N
1512867675.7,286047000.7,N
1512867695.5,286046999.8,N
1512867715.3,286047001.0,N
1512867735.2,286047000.6,N
1512867755.0,286047000.5,N
1512867755.9,286047000.5,N
1512867775.8,286047002.0,N
1512867795.6,286046999.7,N
1512867815.4,286046999.8,N
1512867835.3,286047000.4,N
1512867855.1,286046999.7,N
1512867875.9,286047000.5,N
1512867895.7,286047002.5,N
1512867915.5,286047002.0,N
1512867935.4,286047001.9,N
1512867955.2,286047002.1,N
1512867975.0,286047002.8,N
1512867975.9,286047002.8,N
1512867995.8,286047001.1,N
1512868015.6,286047000.1,N
1512868035.5,286047002.0,N
1512868055.3,286047001.8,N
1512868075.1,286047003.6,N
1512868095.9,286047001.4,N
1512868115.7,286047001.6,N
1512868135.6,286047002.2,N
1512868155.4,286047002.3,N
1512868175.2,286046999.8,N
1512868195.1,286047002.4,N
1512868196.0,286047002.4,N
1512868215.8,286047000.0,N
1512868235.6,286047000.6,N
1512868255.5,286046999.8,N
1512868275.3,286047000.0,N
1512868295.2,286047001.0,N
1512868315.0,286046999.6,N
1512868315.9,286046999.6,N
1512868335.7,286046998.7,N
1512868355.6,286046998.8,N
1512868375.4,286046996.9,N
1512868395.3,286046996.7,N
1512868415.1,286046999.2,N
1512868435.8,286046999.5,N
1512868455.7,286046998.8,N
1512868475.5,286046998.9,N
1512868495.4,286046999.4,N
1512868515.2,286046998.6,N
1512868535.0,286046998.3,N
1512868535.9,286046998.3,N
1512868555.8,286046998.6,N
1512868575.6,286047002.8,N
1512868595.4,286047002.4,N
1512868615.3,286047004.4,N
1512868635.1,286047001.6,N
1512868655.9,286047001.5,N
1512868675.7,286047002.2,N
1512868695.5,286046999.8,N
1512868715.4,286046999.7,N
1512868735.2,286047001.0,N
1512868755.1,286047000.7,N
1512868756.0,286047000.7,N
1512868775.8,286047000.8,N
1512868795.6,286047000.3,N
1512868815.5,286047001.8,N
1512868835.3,286047002.0,N
1512868855.1,286047002.0,N
1512868875.9,286047001.3,N
1512868895.7,286047004.2,N
1512868915.6,286047001.5,N
1512868935.4,286047001.7,N
1512868955.2,286047001.7,N
1512868975.1,286047002.2,N
1512868976.0,286047002.2,N
1512868995.8,286047001.6,N
1512869015.6,286046999.9,N
1512869035.5,286046998.5,N
1512869055.3,286047001.2,N
1512869075.2,286047000.5,N
1512869095.9,286046999.7,N
1512869115.7,286047001.0,N
1512869135.6,286047000.8,N
1512869155.4,286046998.5,N
1512869175.2,286046998.9,N
1512869195.1,286046999.6,N
1512869196.0,286046999.6,N
1512869215.8,286046998.7,N
1512869235.7,286046998.4,N
1512869255.5,286046998.2,N
1512869275.3,286046999.0,N
1512869295.2,286046998.4,N
1512869315.0,286046998.5,N
1512869315.9,286046998.5,N
1512869335.7,286047002.4,N
1512869355.6,286047002.8,N
1512869375.4,286047000.6,N
1512869395.3,286046999.7,N
1512869415.1,286047000.2,N
1512869416.0,286047000.2,N
1512869435.8,286047002.3,N
1512869455.7,286046999.8,N
1512869475.5,286047000.6,N
1512869495.4,286047001.2,N
1512869515.2,286047000.3,N
1512869535.0,286046999.7,N
1512869535.9,286046999.7,N
1512869555.8,286047002.1,N
1512869575.6,286046999.8,N
1512869595.4,286047000.8,N
1512869615.3,286047000.5,N
1512869635.1,286047001.0,N
1512869655.9,286047000.1,N
1512869675.7,286047000.0,N
1512869695.5,286047000.2,N
1512869715.4,286047000.1,N
1512869735.2,286047000.1,N
1512869755.0,286047000.1,N
1512869755.9,286047000.1,N
1512869775.8,286047000.5,N
1512869795.6,286047000.6,N
1512869815.5,286047001.0,N
1512869835.3,286047000.2,N
1512869855.1,286047002.8,Y
1512869875.9,286047002.7,P
1512869895.7,286047002.5,N
1512869915.5,286047002.4,N
1512869935.4,286047002.4,N
1512869955.2,286046999.9,N
1512869975.1,286047001.0,N
1512869976.0,286047001.0,N
1512869995.8,286046998.1,N
1512870015.6,286046998.5,N
1512870035.5,286047000.7,N
1512870055.3,286046999.9,N
1512870075.2,286046999.9,N
1512870095.9,286047002.3,N
1512870115.7,286047001.7,N
1512870135.6,286047002.0,N
1512870155.4,286047000.6,N
1512870175.3,286047002.5,N
1512870195.1,286047002.7,N
1512870196.0,286047002.7,N
1512870215.8,286047002.4,N
1512870235.7,286047002.6,N
1512870255.5,286047001.6,N
1512870275.3,286047002.1,N
1512870295.2,286047001.5,N
1512870315.0,286047002.4,N
1512870315.9,286047002.4,N
1512870335.8,286047002.5,N
1512870355.6,286046999.8,N
1512870375.4,286047000.0,N
1512870395.3,286047002.4,N
1512870415.1,286046999.8,N
1512870435.9,286046998.4,N
1512870455.7,286046996.5,N
1512870475.5,286046998.3,N
1512870495.4,286046998.6,N
1512870515.2,286046998.3,N
1512870535.0,286046999.6,N
1512870536.0,286046999.6,N
1512870555.8,286046998.8,N
1512870575.6,286046999.4,N
1512870595.5,286046998.8,N
1512870615.3,286046998.7,N
1512870635.1,286047000.5,N
1512870655.9,286047001.1,N
1512870675.7,286046998.1,N
1512870695.6,286046999.6,N
1512870715.4,286046996.8,N
1512870735.2,286046995.0,N
1512870755.1,286046999.4,N
1512870756.0,286046999.4,N
1512870775.8,286046996.5,N
1512870795.7,286046998.4,N
1512870815.5,286047001.0,N
1512870835.3,286047001.1,N
1512870855.2,286046998.5,N
1512870875.0,286046999.6,N
1512870875.9,286046999.6,N
1512870895.7,286046999.5,N
1512870915.6,286046999.0,N
1512870935.4,286046999.1,N
1512870955.3,286046997.5,N
1512870975.1,286046997.6,N
1512870995.8,286046995.5,Y
1512871015.7,286046996.5,P
1512871035.5,286046998.5,N
1512871055.4,286046998.2,N
1512871075.2,286047001.2,N
1512871095.0,286046998.4,N
1512871095.9,286046998.4,N
1512871115.8,286046999.5,N
1512871135.6,286046998.4,N
1512871155.4,286046998.6,N
1512871175.3,286046996.8,N
1512871195.1,286046997.2,N
